P/2018 VN2 ( Leonard )

Japanese version
Home page
Updated on July 12, 2026

---------------------------------------------------------------------

* Profile

Discovery Date November 5, 2018
Magnitude 19.0 mag
Discoverer G. J. Leonard (Mount Lemmon)

* Pictures

* Orbital Elements

                    Epoch = 2018 June 11.0 TT
     T = 2018 June  5.37915 TT        Peri. = 138.77536
     e = 0.4775214                    Node  = 226.54876 2000.0
     q = 2.1226219 AU                 Incl. =  18.24045
       a =  4.0626011 AU   n = 0.12036433   P =   8.19 years

* Magnitudes Graph

        m1 = 14.5 + 5 log d + 10.0 log r

---------------------------------------------------------------------

The orbital elements are printed on CBET 5710.
The magnitudes graphs are made with Comet for Windows.

---------------------------------------------------------------------

Copyright(C) Seiichi Yoshida (comet@aerith.net). All rights reserved.